Zurück zum Katalog

ARIANE 1 DEB

AktivHEO
NORAD 40774·DEBRIS·🇫🇷 France

Gestartet Dec 24, 1979 von Guiana Space Centre

Loading…

Nächste Überflüge (nächste 24 Stunden)

TLE

AktuellSource: Space-Track

Epoche: Sep 9, 2026, 13:13 UTC

1 40774U 79104AB  26252.55093663  .00001629  00000-0  33529-2 0  9999
2 40774  18.7266 330.3258 5898979 294.5211  16.3225  4.01853878 43984

Verfolge ARIANE 1 DEB in Echtzeit mit AllMySat

Download on the App Store